#timestamp,LO_Frequency,Hit,StdDev 
1577955615.8,286046997.8,N
1577955635.6,286046997.7,N
1577955655.5,286046998.5,N
1577955675.3,286047002.4,N
1577955695.1,286047000.7,N
1577955715.9,286046998.1,N
1577955735.7,286046998.5,N
1577955755.5,286047002.3,N
1577955775.4,286046999.9,N
1577955795.2,286047000.2,N
1577955815.1,286046999.8,N
1577955816.0,286046999.8,N
1577955835.8,286047002.4,N
1577955855.6,286047002.7,N
1577955875.5,286047002.4,N
1577955895.3,286047000.3,N
1577955915.2,286046996.5,N
1577955935.9,286046996.0,N
1577955955.7,286046995.1,N
1577955975.6,286046996.6,N
1577955995.4,286046998.5,N
1577956015.2,286047000.1,N
1577956035.1,286047002.5,N
1577956036.0,286047002.5,N
1577956055.8,286047001.8,N
1577956075.7,286047004.0,N
1577956095.5,286047004.3,N
1577956115.3,286047002.9,N
1577956135.2,286047005.4,N
1577956155.0,286047003.4,N
1577956155.9,286047003.4,N
1577956175.7,286047005.9,N
1577956195.6,286047003.8,N
1577956215.4,286047004.1,N
1577956235.3,286047001.6,N
1577956255.1,286047001.9,N
1577956256.0,286047001.9,N
1577956275.8,286047001.5,N
1577956295.7,286047004.1,N
1577956315.5,286047002.1,N
1577956335.3,286047005.4,N
1577956355.2,286047005.0,N
1577956375.0,286047005.8,N
1577956375.9,286047005.8,N
1577956395.8,286047006.0,N
1577956415.6,286047005.5,N
1577956435.4,286047005.9,N
1577956455.3,286047005.8,N
1577956475.1,286047004.0,N
1577956495.8,286047004.3,N
1577956515.7,286047004.0,N
1577956535.5,286047004.2,N
1577956555.4,286047002.0,N
1577956575.2,286047003.5,N
1577956595.0,286047000.1,N
1577956595.9,286047000.1,N
1577956615.8,286047000.4,N
1577956635.6,286047000.0,N
1577956655.5,286046999.8,N
1577956675.3,286046998.6,N
1577956695.1,286046999.4,N
1577956715.9,286046996.8,N
1577956735.7,286046998.6,N
1577956755.5,286046997.4,N
1577956775.4,286046997.3,N
1577956795.2,286046993.3,N
1577956815.0,286046996.3,N
1577956816.0,286046996.3,N
1577956835.8,286046997.5,N
1577956855.6,286046997.4,N
1577956875.5,286046997.9,N
1577956895.3,286046996.5,N
1577956915.1,286047000.8,N
1577956935.9,286046999.9,N
1577956955.7,286046998.1,N
1577956975.6,286046998.8,N
1577956995.4,286047001.1,N
1577957015.2,286047002.7,N
1577957035.1,286046999.7,N
1577957036.0,286046999.7,N
1577957055.8,286047000.6,N
1577957075.6,286047000.0,N
1577957095.5,286047001.0,N
1577957115.3,286047001.1,N
1577957135.2,286046998.2,N
1577957155.9,286047000.4,N
1577957175.7,286047002.7,N
1577957195.6,286047000.4,N
1577957215.4,286047002.3,N
1577957235.2,286047001.0,N
1577957255.1,286047000.1,N
1577957256.0,286047000.1,N
1577957275.8,286047000.6,N
1577957295.7,286046999.5,N
1577957315.5,286046995.1,N
1577957335.3,286046993.5,N
1577957355.2,286046994.3,N
1577957375.0,286046994.6,N
1577957375.9,286046994.6,N
1577957395.7,286046994.2,N
1577957415.6,286046993.8,N
1577957435.4,286046993.6,N
1577957455.3,286046993.8,N
1577957475.1,286046996.3,N
1577957476.0,286046996.3,N
1577957495.8,286046995.6,N
1577957515.7,286046994.3,N
1577957535.5,286046993.3,N
1577957555.3,286046995.7,N
1577957575.2,286046995.5,N
1577957595.0,286046993.4,N
1577957595.9,286046993.4,N
1577957615.8,286046993.6,N
1577957635.6,286046993.4,N
1577957655.4,286046993.8,N
1577957675.3,286046995.8,N
1577957695.1,286046995.6,N
1577957715.9,286046995.8,N
1577957735.7,286046995.5,N
1577957755.5,286046997.4,N
1577957775.4,286046995.2,N
1577957795.2,286046997.6,N
1577957815.0,286046996.9,N
1577957815.9,286046996.9,N
1577957835.8,286046998.6,N
1577957855.6,286046998.3,N
1577957875.4,286046996.6,N
1577957895.3,286046997.1,N
1577957915.1,286046996.8,N
1577957935.9,286047001.1,N
1577957955.7,286047001.0,N
1577957975.5,286047001.2,N
1577957995.4,286046998.5,N
1577958015.2,286046996.6,N
1577958035.0,286047001.2,N
1577958035.9,286047001.2,N
1577958055.8,286047001.9,N
1577958075.6,286047002.2,N
1577958095.5,286047002.1,N
1577958115.3,286047002.2,N
1577958135.1,286047002.6,N
1577958155.9,286046999.9,N
1577958175.7,286047000.9,N
1577958195.5,286047002.8,N
1577958215.4,286047001.7,N
1577958235.2,286047002.8,N
1577958255.1,286047000.4,N
1577958256.0,286047000.4,N
1577958275.8,286047000.7,N
1577958295.6,286046998.3,N
1577958315.5,286046998.1,N
1577958335.3,286046999.3,N
1577958355.2,286047001.0,N
1577958375.9,286047000.3,N
1577958395.7,286047002.4,N
1577958415.6,286047002.2,N
1577958435.4,286047002.3,N
1577958455.2,286047002.7,N
1577958475.1,286047002.8,N
1577958476.0,286047002.8,N
1577958495.8,286046999.8,N
1577958515.7,286047000.3,N
1577958535.5,286047002.8,N
1577958555.3,286047002.2,N
1577958575.2,286047000.3,N
1577958595.0,286047001.2,N
1577958595.9,286047001.2,N
1577958615.7,286047000.9,N
1577958635.6,286047002.2,N
1577958655.4,286047000.7,N
1577958675.3,286046999.4,N
1577958695.1,286046999.4,N
1577958696.0,286046999.4,N
1577958715.8,286046998.4,N
1577958735.7,286046997.9,N
1577958755.5,286046998.5,N
1577958775.3,286046996.7,N
1577958795.2,286047001.2,N
1577958815.0,286046998.8,N
1577958815.9,286046998.8,N
1577958835.8,286046999.6,N
1577958855.6,286046997.3,N
1577958875.4,286046997.7,N
1577958895.3,286046999.5,N
1577958915.1,286046996.5,N
1577958935.8,286046997.7,N
1577958955.7,286046997.3,N
1577958975.5,286046997.6,N
1577958995.4,286046995.6,N
1577959015.2,286046995.5,N
1577959035.0,286046995.7,N
1577959035.9,286046995.7,N
1577959055.8,286046997.8,N
1577959075.6,286046995.3,N
1577959095.5,286046995.9,N
1577959115.3,286046995.8,N
1577959135.1,286046995.0,N
1577959155.9,286046995.7,N
1577959175.7,286046995.7,N
1577959195.5,286046994.9,Y
